Location: Izdebno
(52.6670°N, 16.2170°E)
Time: 14:01:25
(UTC+02:00)

A-11 Canister half - Pass Details

Date: 25 February 2024
Orbit: 1525 x 1683 km, 47.3° (Epoch: 24 April)

Event Time Altitude Azimuth Distance (km) Brightness Sun altitude
Rises 19:19:07 0° 195° (SSW) 4,775 11.7 -17.9°
Reaches altitude 10° 19:23:02 10° 182° (S) 3,768 11.0 -18.5°
Maximum altitude 19:29:56 23° 135° (SE) 2,834 9.9 -19.5°
Enters shadow 19:30:38 23° 129° (SE) 2,842 9.9 -19.6°
